User: anonymous   Login
Location: Unspecified
(0.0000°N, 0.0000°E)
Time: 10:39:10
(UTC+01:00)
Language:

Cosmos 540 Rocket - Orbit

View from above orbital plane
View from above orbital plane
View from above satellite
View from above satellite

Ground track
Ground track

The orbit data is extracted from the following two-line orbital elements,

1 06324U 72104B   16343.36849213  .00000111  00000-0  40764-4 0  9990
2 06324  74.0772  99.5874 0010317 286.9652  73.0374 14.43342608308040
Epoch (UTC): 08 December 2016 08:50:37
Eccentricity: 0.0010317
inclination: 74.0772°
perigee height: 740 km
apogee height: 755 km
right ascension of ascending node: 99.5874°
argument of perigee: 286.9652°
revolutions per day: 14.43342608
mean anomaly at epoch: 73.0374°
orbit number at epoch: 30804

The dashed part of the orbit path shows where the satellite is in the earth's shadow,  

DLR